Dewpoint
50 52 52 53 53 52 52 53 53 52 51 51 52 52 53 53 53 53 53 53 54 55 55 55 55 54 54 54 54 53 53 53 53 52 52 52 51 51 51 51 51 51 51 51 51 51 52 52 52 52 52 53 53 53 53 53 53 54 54 54 55 55 55 55 54 54 53 53 52 51 50 49 48 47 46 45 44 44 43 43 42 42 42 42 41 41
49 50 51 52 52 52 52 52 52 52 51 51 51 52 52 52 52 52 53 53 54 54 55 54 54 54 54 54 53 53 53 53 53 52 52 51 51 51 51 50 50 50 50 50 50 50 50 51 51 51 51 52 52 52 52 53 53 53 53 54 55 55 55 55 54 54 53 53 52 51 50 49 47 46 45 44 44 43 42 41 41 40 40 40 40 40
49 49 50 51 52 52 52 52 52 52 51 51 51 51 51 51 51 52 53 53 54 54 54 54 53 53 53 53 53 53 53 53 53 52 52 51 51 50 50 50 50 50 49 49 49 49 49 49 49 49 49 50 50 50 51 51 52 52 53 53 54 55 55 54 54 53 53 53 52 50 49 48 46 45 44 44 43 42 40 40 40 39 39 40 40 40
49 49 49 50 51 52 52 51 52 52 52 52 51 51 51 51 51 52 52 53 53 53 53 53 53 53 53 53 53 53 53 53 53 52 52 51 51 50 50 50 49 49 49 49 49 48 48 48 48 48 48 48 48 49 49 49 50 51 51 52 53 54 54 54 53 53 53 51 50 49 48 46 46 45 44 43 42 40 40 39 38 38 38 39 39 40
49 49 49 49 50 51 50 50 51 51 52 51 51 51 51 51 51 51 52 52 53 53 53 53 52 52 52 52 53 53 53 53 52 52 51 51 50 50 49 49 49 49 48 48 48 47 47 47 47 47 46 46 47 47 47 48 49 49 50 51 52 52 53 53 52 52 51 50 49 48 46 46 45 44 43 42 41 40 39 37 37 36 36 38 39 39
48 49 49 49 49 49 46 48 49 50 50 50 51 51 51 50 50 51 51 51 51 51 51 51 52 52 52 52 52 53 53 52 52 51 51 50 50 49 49 49 48 48 48 47 47 47 46 46 46 45 45 45 45 46 46 47 47 48 49 49 50 50 51 51 50 50 49 48 47 46 46 45 44 43 42 41 40 39 38 37 36 35 35 37 38 39
48 48 48 47 45 44 43 45 47 49 49 49 49 49 48 48 49 49 50 50 50 50 50 50 50 51 51 51 52 52 52 52 52 51 51 50 49 49 49 48 48 47 47 47 46 46 45 45 45 45 44 44 44 45 45 45 46 46 47 48 48 49 49 49 49 48 48 47 46 46 45 44 44 43 42 40 40 39 37 36 35 35 35 36 38 39
46 46 45 43 41 41 42 44 46 48 48 48 48 46 45 45 46 47 48 49 49 49 49 49 49 49 50 51 52 52 52 51 51 50 50 49 49 49 48 47 47 47 46 46 45 45 45 44 44 44 44 44 44 44 44 44 45 45 46 46 47 47 48 48 47 47 47 46 46 45 44 44 43 42 41 40 39 38 37 36 35 35 35 36 38 39
45 44 43 42 42 42 43 43 44 45 47 47 47 46 45 45 45 45 45 46 46 47 48 48 48 48 49 50 51 51 51 50 50 49 49 48 48 47 47 47 46 46 45 45 44 44 44 44 43 43 43 43 43 43 43 44 44 44 44 45 45 46 46 46 46 46 46 45 45 44 44 43 42 41 40 40 39 38 37 36 35 35 35 36 38 39
45 44 44 43 43 43 44 43 43 44 45 45 46 46 46 45 45 44 44 43 43 44 46 47 47 47 47 49 49 50 50 49 49 49 49 47 47 47 46 45 45 44 44 44 44 43 43 43 42 42 42 42 42 42 42 42 43 43 44 44 44 45 45 45 45 45 44 44 44 44 43 42 42 41 40 40 39 38 38 37 37 36 36 37 38 39
45 44 44 43 41 41 42 42 42 42 44 44 44 44 45 46 45 45 44 43 42 43 45 45 45 45 46 47 48 49 48 48 48 48 48 47 47 46 45 44 44 44 43 43 43 42 42 41 41 41 40 40 40 41 41 41 42 42 43 43 44 44 44 44 44 44 44 44 43 43 42 42 41 40 40 39 39 38 38 38 38 39 39 39 40 40
44 44 44 42 41 40 41 40 41 42 43 44 44 44 44 44 45 45 44 44 44 44 44 41 40 41 44 46 47 47 47 46 46 46 46 46 46 45 44 43 43 42 42 42 41 41 41 40 40 40 40 40 40 40 40 40 40 41 41 42 42 43 43 43 43 44 43 43 43 42 42 41 40 40 40 39 38 38 38 38 39 39 40 40 41 41
44 44 43 42 42 41 40 40 40 41 43 44 44 44 44 44 44 45 45 45 44 44 43 40 39 38 40 42 44 46 45 44 44 44 44 44 44 43 41 41 40 40 40 40 39 39 40 40 39 39 39 39 39 39 39 39 40 40 40 40 41 41 42 42 43 43 43 43 42 42 41 41 40 40 39 39 38 37 37 37 38 39 40 41 42 43
43 43 42 41 41 41 41 41 41 42 43 44 44 44 44 44 44 44 45 44 44 44 43 42 40 38 36 38 41 44 45 44 43 43 43 41 40 40 40 39 38 38 38 37 37 38 39 38 38 37 38 39 39 38 38 38 38 38 39 39 40 40 40 41 41 42 42 42 42 42 41 41 40 40 39 38 37 37 36 37 38 40 41 42 43 44
43 42 41 41 41 41 41 41 42 43 44 44 44 44 44 44 44 44 44 43 43 42 42 41 39 37 35 35 36 39 44 43 42 41 41 39 38 37 38 38 37 36 36 36 37 37 38 37 36 36 37 38 39 39 38 38 38 37 37 38 38 39 39 40 40 40 41 41 41 41 41 40 40 40 39 38 37 36 36 37 39 40 41 43 44 44
43 42 41 41 41 41 42 42 43 43 44 44 44 44 43 43 44 44 44 43 42 41 41 40 39 38 37 36 36 37 42 42 42 41 40 37 36 35 37 38 37 36 36 36 35 35 35 35 35 35 36 38 38 38 38 38 37 36 37 37 37 37 38 38 39 39 40 40 40 40 40 40 40 39 38 37 37 36 36 38 39 41 42 43 44 45
43 43 42 42 42 42 42 43 44 44 44 44 44 43 44 44 44 44 44 42 41 41 41 41 40 40 39 38 37 38 39 41 41 40 39 37 35 34 34 37 37 35 35 35 34 33 33 33 34 35 36 37 37 37 37 37 36 36 36 36 36 37 37 37 37 38 38 39 39 39 39 39 39 38 37 37 36 36 37 38 40 41 43 44 44 45
44 43 43 43 43 42 43 43 44 44 44 43 43 43 44 44 44 44 43 42 41 41 41 42 42 41 40 40 39 39 38 41 41 40 38 36 34 32 31 35 36 36 35 34 33 32 31 32 33 34 36 36 36 36 36 36 36 36 36 36 36 36 36 36 36 37 37 37 38 38 38 38 38 37 37 36 36 36 37 39 40 42 43 44 44 45
44 44 44 44 43 43 43 43 44 44 44 43 43 43 43 44 44 43 42 42 42 42 42 42 42 43 42 42 41 40 39 40 40 40 38 36 34 31 29 34 35 35 34 34 33 31 31 31 34 35 36 36 35 35 36 36 36 36 36 36 36 36 36 36 36 36 36 36 37 37 37 37 37 36 36 36 36 37 38 40 41 42 43 44 44 45
44 44 44 44 44 44 43 44 44 44 44 44 44 44 43 43 43 43 42 42 43 43 43 43 43 43 43 41 40 39 39 40 40 39 38 36 34 31 27 33 35 35 34 33 31 30 30 31 33 34 35 35 35 35 35 36 36 36 36 36 36 36 36 36 36 36 36 36 36 36 36 36 36 36 36 36 36 37 39 40 41 42 43 44 44 45
45 45 46 46 45 44 44 44 44 45 45 44 44 43 43 43 43 42 42 42 43 43 43 43 43 43 41 40 38 38 40 40 40 39 38 35 33 31 28 31 34 35 34 32 30 28 28 30 31 33 35 34 34 35 35 36 36 36 36 36 35 35 36 36 36 36 36 36 36 36 36 36 36 36 36 36 37 38 39 40 41 42 43 44 44 44
46 46 47 48 47 46 45 45 45 46 46 44 44 43 44 43 43 42 42 43 43 43 43 43 40 39 37 38 38 39 40 40 40 39 38 35 33 31 30 30 33 35 34 32 30 27 27 28 30 31 34 34 34 34 35 35 36 36 36 36 35 35 35 35 36 36 36 36 36 36 36 36 36 36 36 37 37 38 40 40 41 42 43 43 44 44
48 47 47 47 46 46 46 45 45 45 45 44 44 44 44 44 44 43 43 43 43 42 40 36 34 34 35 37 38 39 40 40 40 39 38 35 34 32 30 30 32 34 34 32 29 27 26 27 28 31 34 33 34 34 35 36 36 36 36 36 35 35 35 35 36 36 36 36 36 36 36 36 36 36 37 37 38 39 40 40 41 42 43 43 44 44
48 48 47 46 45 44 45 45 45 45 45 44 44 44 43 43 44 44 44 43 42 40 37 35 35 35 35 36 37 38 39 40 40 39 38 37 35 32 30 31 33 34 34 32 30 28 27 27 27 29 32 33 34 35 35 36 36 36 36 36 36 35 35 35 35 36 36 36 36 36 36 36 36 36 37 37 38 38 39 40 41 42 42 43 43 43
48 48 47 46 46 45 45 45 45 45 44 44 43 42 42 43 43 43 42 41 39 38 37 37 36 35 34 35 36 36 38 39 39 39 39 37 35 32 30 31 33 34 33 30 28 27 27 27 27 28 29 31 34 36 36 36 36 36 36 36 36 36 35 35 35 36 36 36 36 36 36 36 36 36 36 37 37 38 39 40 40 41 42 42 42 43
48 48 48 47 47 47 46 46 46 46 45 45 44 44 44 43 42 41 40 39 38 38 38 38 37 35 33 34 35 36 37 37 37 38 39 37 34 31 30 31 33 33 32 28 27 27 28 28 27 27 27 29 33 36 36 36 36 36 36 36 36 36 35 35 35 36 36 36 36 36 36 36 36 36 36 36 37 38 38 39 40 40 41 41 42 42
48 48 48 48 47 47 47 46 46 46 46 46 45 44 44 42 41 40 39 38 38 39 39 39 37 35 33 33 34 35 36 36 36 35 36 35 33 31 30 31 32 32 31 28 27 28 30 29 28 27 27 27 30 33 35 36 36 36 36 36 36 36 35 35 35 35 36 36 36 36 36 36 36 36 36 36 37 37 38 39 39 40 40 40 40 40
47 47 47 47 47 47 47 47 47 47 47 46 46 45 44 43 41 40 39 39 39 39 40 39 38 35 34 33 33 34 35 36 36 35 33 35 34 31 30 31 32 32 30 28 28 30 31 30 28 27 28 28 28 29 32 35 35 35 36 36 36 36 35 35 35 35 35 36 36 36 36 36 36 36 36 36 36 37 37 38 39 39 39 36 35 35
46 46 47 47 47 47 47 47 47 47 47 46 46 45 45 43 42 40 40 40 40 40 40 40 39 36 35 33 32 32 33 35 36 35 34 35 34 32 30 31 31 31 30 28 28 29 29 29 27 26 27 29 29 29 29 31 33 35 36 36 36 36 35 35 35 35 35 35 36 36 36 36 36 36 36 36 36 37 37 38 38 37 35 32 31 30
45 45 46 46 46 46 46 46 46 47 47 46 46 45 45 44 43 42 40 40 40 40 40 40 39 37 34 33 32 31 32 34 35 36 36 36 34 31 29 30 31 31 30 28 27 26 26 27 26 26 26 28 29 28 26 26 29 31 34 35 36 36 35 35 35 35 35 35 36 36 36 36 36 36 36 36 36 36 37 38 37 35 31 29 28 27
44 44 45 45 45 46 46 46 46 46 46 46 46 45 45 44 43 42 40 40 40 40 40 40 38 36 35 34 33 32 33 34 35 36 36 37 35 31 29 30 31 31 30 30 29 27 26 26 26 26 26 27 28 27 26 26 26 28 31 34 35 35 35 35 35 35 35 35 35 36 36 36 36 36 36 36 36 36 37 38 36 34 30 28 27 27
44 44 44 44 45 45 45 45 45 45 45 45 45 45 44 43 42 41 40 40 40 40 40 39 38 36 35 35 35 35 34 34 35 36 37 37 34 30 29 30 30 30 30 30 30 29 29 27 26 26 26 26 26 26 27 26 26 26 29 33 34 35 35 35 35 35 35 35 35 36 36 36 36 36 36 36 36 36 37 38 37 34 30 28 27 27
44 44 44 44 44 44 44 44 44 44 44 44 44 44 43 43 42 41 40 40 40 40 40 39 37 36 35 36 35 34 32 32 35 37 38 36 32 30 30 30 30 29 29 27 26 26 28 27 26 25 25 26 26 26 26 26 26 27 30 32 33 34 34 34 34 35 35 35 35 36 36 36 36 36 36 36 36 37 37 38 37 35 31 29 28 27
43 43 43 43 43 43 44 44 44 44 44 44 43 43 42 42 41 41 40 40 40 40 40 39 38 36 35 36 35 33 29 31 35 37 38 35 32 30 30 30 30 29 28 26 23 22 23 23 24 25 25 26 26 26 25 26 26 28 29 31 32 32 33 34 34 35 35 35 35 35 35 36 36 36 36 36 36 37 37 38 37 36 34 31 29 27
42 42 42 42 42 42 43 43 43 43 43 43 43 42 42 41 40 40 40 40 39 39 39 39 38 37 36 36 36 34 29 31 34 37 37 35 32 30 30 30 30 29 29 27 25 22 21 21 23 26 26 26 26 25 24 23 24 26 28 31 32 32 32 33 34 35 35 34 34 33 32 34 35 36 36 36 36 36 37 37 37 36 35 34 32 29
41 41 41 41 42 42 42 42 42 42 42 41 41 41 41 40 40 39 38 38 37 37 37 36 36 36 36 37 37 35 32 32 34 37 38 35 33 31 31 31 31 30 29 29 27 25 23 23 25 27 28 27 26 25 24 22 23 25 28 30 31 31 30 30 31 31 31 32 31 30 28 31 33 35 35 36 36 36 37 37 37 36 35 35 34 32
40 40 41 41 41 41 41 41 41 41 41 39 39 39 40 39 38 37 36 36 36 36 35 35 35 34 35 34 35 35 35 33 35 36 37 35 34 32 32 31 31 31 30 30 29 28 26 25 26 27 28 26 26 25 24 23 24 26 27 29 30 30 29 28 29 31 30 32 31 28 28 29 31 33 35 36 37 36 37 37 37 36 35 35 35 34
40 40 40 40 40 41 41 41 40 40 40 38 37 37 37 36 36 35 35 35 34 34 34 33 33 34 35 35 34 34 34 34 35 36 36 36 35 34 34 32 31 31 31 31 30 29 28 27 27 27 27 25 25 26 25 24 25 26 28 29 29 28 27 27 28 30 31 31 31 30 30 30 31 32 33 34 35 35 34 34 35 36 35 35 35 35
40 40 40 40 40 40 40 40 40 39 37 36 35 35 35 34 34 34 33 33 33 32 32 31 31 32 33 34 35 35 35 35 35 35 35 35 35 35 34 33 32 31 32 32 31 31 30 29 28 27 26 25 24 24 25 24 25 26 28 29 28 27 26 27 28 30 32 31 31 31 30 27 27 28 28 28 29 30 30 31 33 35 34 34 34 34
40 40 40 40 40 40 40 40 38 36 35 34 34 34 33 33 33 32 31 31 31 31 30 30 30 30 30 31 33 34 35 36 36 36 35 35 35 35 35 33 32 31 32 32 32 31 31 30 30 29 28 26 25 24 24 24 25 27 29 29 29 29 29 27 27 27 30 30 31 30 27 24 24 26 26 26 26 25 25 26 28 30 32 32 32 32
40 40 40 40 40 40 39 37 35 34 33 33 33 33 33 32 31 30 30 30 30 30 30 29 29 28 27 26 26 27 29 32 34 36 36 35 35 35 35 34 32 32 32 31 31 31 31 31 30 30 28 27 26 25 25 25 26 28 29 28 26 25 26 28 27 27 27 29 29 29 27 26 26 26 25 26 24 21 22 22 22 24 27 26 26 28
39 39 39 38 37 35 33 33 33 33 33 33 33 33 32 32 31 30 30 29 29 29 29 30 30 28 27 26 25 24 23 23 26 30 32 33 34 35 34 33 33 32 31 31 31 31 31 31 31 29 28 27 26 26 25 25 26 28 29 28 27 27 28 29 26 25 26 28 29 29 30 28 26 26 26 24 19 17 20 20 23 26 26 22 22 25
39 38 37 35 34 32 32 32 32 32 33 33 33 33 33 32 32 32 31 30 30 30 30 31 31 30 28 26 25 24 23 22 22 24 25 26 30 32 33 33 33 32 31 31 31 31 31 31 31 29 27 27 26 26 25 26 26 27 28 28 28 27 27 28 26 24 25 27 28 28 29 26 25 23 23 21 18 17 18 23 28 30 29 22 20 21
37 35 34 32 31 31 31 31 31 32 32 33 33 33 32 32 33 33 32 31 31 31 31 31 31 31 29 26 25 24 23 22 22 23 24 26 26 28 31 32 32 32 31 31 31 30 30 30 28 26 26 27 27 26 26 26 26 27 28 28 28 27 26 26 26 26 25 26 27 26 25 24 22 20 21 19 18 17 17 18 20 22 26 21 18 18
34 32 31 31 31 31 31 31 31 32 32 32 32 31 31 32 33 33 32 31 31 31 31 31 31 30 28 26 25 24 23 23 23 24 24 27 29 31 30 31 31 31 31 31 31 30 29 27 24 23 24 26 26 26 26 26 26 26 28 28 28 26 23 24 25 26 26 26 26 24 21 21 21 21 20 18 17 16 15 16 17 19 20 20 19 18
32 31 30 30 30 31 31 31 31 31 31 31 31 31 31 31 32 32 32 31 30 30 31 31 31 31 29 27 25 24 24 23 23 23 22 23 24 26 29 31 31 31 31 31 31 31 30 27 25 23 24 25 25 25 25 26 26 26 27 28 27 26 22 22 23 25 26 26 23 20 17 20 22 23 22 19 18 16 14 15 16 17 17 19 19 19
31 30 30 30 30 31 31 31 31 31 31 31 30 30 30 31 31 32 31 31 31 31 31 32 32 31 29 27 26 26 25 24 23 23 23 23 23 24 26 27 29 30 29 29 29 30 29 28 26 26 25 24 23 22 22 23 25 26 26 27 27 26 22 20 21 23 26 26 23 19 16 21 23 23 22 19 18 17 15 15 15 16 17 19 19 19
31 30 30 30 30 31 31 31 31 30 30 30 29 29 29 30 31 31 31 31 31 31 31 31 31 31 29 27 27 26 26 26 25 24 23 23 23 24 24 25 25 26 26 26 26 26 25 26 26 26 26 25 24 22 22 22 23 25 26 26 26 26 24 20 18 20 25 25 22 20 20 23 23 23 21 19 18 17 17 17 17 16 17 18 19 20
31 31 30 30 30 30 30 30 30 30 30 29 28 28 28 30 31 32 31 31 31 31 31 31 31 30 28 27 27 27 27 26 25 24 23 23 23 24 24 24 24 24 24 24 23 23 24 25 25 25 26 25 24 23 22 22 22 23 24 25 26 25 24 20 18 19 23 22 21 19 22 23 22 22 22 21 19 18 17 18 17 17 16 17 19 20
31 31 31 30 30 30 30 30 30 30 30 29 28 27 27 29 30 31 31 31 31 31 31 31 30 29 27 26 26 27 27 26 25 24 23 23 23 24 24 24 24 24 23 22 22 23 23 23 24 25 26 26 25 24 22 22 22 22 22 24 25 25 24 22 20 20 22 22 21 20 21 22 21 20 22 21 20 18 18 18 19 18 17 17 18 20
31 31 31 31 30 30 30 29 30 30 30 29 27 26 27 28 29 30 30 30 30 31 31 30 29 28 27 26 26 26 26 26 25 24 23 23 23 24 24 24 24 24 23 23 22 22 22 22 22 23 24 26 27 26 22 22 22 22 22 23 24 24 24 22 21 21 22 22 21 21 21 21 21 21 22 22 21 19 18 18 18 18 17 16 17 20